Hourly Data Report for October 05, 2017

All times are specified in Local Standard Time (LST). Add 1 hour to adjust for Daylight Saving Time where and when it is observed.

VERNON AUTO
BRITISH COLUMBIA

50°13'23.900" N
119°11'36.700" W
482.00 m
1128582
71115
WJV

Download Data

Hourly Data (October 2017)
Hourly Data Report for October 5, 2017
Temp Definition
°C
Dew Point Temp Definition
°C
Rel Hum Definition
%
Wind Dir Definition
10's deg

Wind Spd Definition
km/h
Visibility Definition
km
Stn Press Definition
kPa
Hmdx Definition


Wind Chill Definition


Weather Definition


TIME
00:00 5.1 1.1 75 12 11   96.59     LegendNANA
01:00 4.1 0.9 80 9 3   96.60     LegendNANA
02:00 3.7 1.0 82 8 2   96.61     LegendNANA
03:00 3.4 0.5 81 10 15   96.60     LegendNANA
04:00 2.7 0.5 86 5 2   96.64     LegendNANA
05:00 2.2 0.5 89 7 2   96.65     LegendNANA
06:00 1.7 0.2 90 9 1   96.65     LegendNANA
07:00 3.1 0.8 85 10 7   96.67     LegendNANA
08:00 6.3 2.1 74 10 4   96.68     LegendNANA
09:00 9.0 2.3 63 4 3   96.65     LegendNANA
10:00 10.6 2.6 58 25 4   96.60     LegendNANA
11:00 13.4 3.5 51 23 3   96.51     LegendNANA
12:00 15.1 3.4 45 25 4   96.41     LegendNANA
13:00 16.8 3.3 41 30 2   96.29     LegendNANA
14:00 17.5 3.3 39 25 4   96.21     LegendNANA
15:00 17.6 1.5 34 29 2   96.12     LegendNANA
16:00 16.6 2.1 38 28 4   96.06     LegendNANA
17:00 12.5 3.6 55 21 3   96.02     LegendNANA
18:00 9.2 2.5 63 16 4   96.02     LegendNANA
19:00 8.4 1.9 64 6 3   96.04     LegendNANA
20:00 8.4 1.7 63 11 8   96.01     LegendNANA
21:00 8.7 1.4 60 12 9   96.01     LegendNANA
22:00 7.8 1.3 64 10 15   95.97     LegendNANA
23:00 7.5 1.2 64 10 12   95.96     LegendNANA

Notes on Data Quality.

Legend

  • E = Estimated
  • M = Missing
  • NA = Not Available
  • ‡ = Partner data that is not subject to review by the National Climate Archives
Date modified: